| time (UTC) | temp F | wind direction | speed knots | gust knots | rain 1hr in | rain 24hr in | rain mn in | humidity % | barometer mb |
| 20260902193026 | 99 | 4 | 0.9 | 5.2 | 0.00 | 0.00 | 0.00 | 46 | 1012.5 |
| 20260902191534 | 99 | 60 | 0.9 | 4.3 | 0.00 | 0.00 | 0.00 | 49 | 1012.8 |
| 20260902190019 | 98 | 34 | 0.9 | 3.5 | 0.00 | 0.00 | 0.00 | 48 | 1013.0 |
| 20260902184515 | 97 | 23 | 1.7 | 5.2 | 0.00 | 0.00 | 0.00 | 50 | 1013.3 |
| 20260902183014 | 96 | 84 | 0.9 | 5.2 | 0.00 | 0.00 | 0.00 | 51 | 1013.4 |
| 20260902181509 | 95 | 165 | 1.7 | 5.2 | 0.00 | 0.00 | 0.00 | 51 | 1013.7 |
| 20260902180008 | 96 | 41 | 0.0 | 5.2 | 0.00 | 0.00 | 0.00 | 52 | 1014.3 |
| 20260902174506 | 96 | 162 | 0.9 | 4.3 | 0.00 | 0.00 | 0.00 | 53 | 1014.6 |
| 20260902173001 | 95 | 103 | 0.0 | 4.3 | 0.00 | 0.00 | 0.00 | 54 | 1014.7 |
| 20260902171600 | 95 | 290 | 1.7 | 5.2 | 0.00 | 0.00 | 0.00 | 51 | 1014.9 |
| 20260902170059 | 95 | 130 | 0.9 | 3.5 | 0.00 | 0.00 | 0.00 | 56 | 1015.3 |
| 20260902164556 | 94 | 236 | 0.9 | 3.5 | 0.00 | 0.00 | 0.00 | 57 | 1015.4 |
| 20260902163101 | 93 | 304 | 0.9 | 2.6 | 0.00 | 0.00 | 0.00 | 59 | 1015.5 |
| 20260902161555 | 93 | 110 | 0.9 | 2.6 | 0.00 | 0.00 | 0.00 | 59 | 1015.6 |
| 20260902160055 | 92 | 175 | 0.0 | 2.6 | 0.00 | 0.00 | 0.00 | 61 | 1015.6 |
| 20260902154544 | 91 | 151 | 0.0 | 2.6 | 0.00 | 0.00 | 0.00 | 63 | 1015.6 |
| 20260902153042 | 89 | 131 | 0.9 | 3.5 | 0.00 | 0.00 | 0.00 | 66 | 1015.6 |
| 20260902151540 | 89 | 166 | 0.9 | 2.6 | 0.00 | 0.00 | 0.00 | 67 | 1015.6 |
| 20260902150038 | 89 | 147 | 0.0 | 2.6 | 0.00 | 0.00 | 0.00 | 68 | 1015.5 |
| 20260902144537 | 87 | 288 | 0.0 | 2.6 | 0.00 | 0.00 | 0.00 | 69 | 1015.5 |
| 20260902143031 | 86 | 132 | 0.0 | 2.6 | 0.00 | 0.00 | 0.00 | 72 | 1015.5 |
| 20260902141528 | 85 | 84 | 0.9 | 2.6 | 0.00 | 0.00 | 0.00 | 74 | 1015.4 |
| 20260902140026 | 83 | 133 | 1.7 | 3.5 | 0.00 | 0.00 | 0.00 | 77 | 1015.4 |
| 20260902134534 | 81 | 134 | 0.9 | 2.6 | 0.00 | 0.00 | 0.00 | 80 | 1015.3 |
| 20260902133024 | 80 | 253 | 0.0 | 1.7 | 0.00 | 0.00 | 0.00 | 81 | 1015.2 |
| 20260902131523 | 79 | 215 | 0.0 | 2.6 | 0.00 | 0.00 | 0.00 | 81 | 1015.2 |
| 20260902130020 | 78 | 110 | 0.9 | 2.6 | 0.00 | 0.00 | 0.00 | 82 | 1015.3 |
| 20260902124521 | 77 | 139 | 0.0 | 1.7 | 0.00 | 0.00 | 0.00 | 83 | 1015.2 |
| 20260902123020 | 76 | 186 | 0.0 | 0.0 | 0.00 | 0.00 | 0.00 | 83 | 1015.0 |
| 20260902121517 | 76 | 128 | 0.0 | 0.0 | 0.00 | 0.00 | 0.00 | 84 | 1015.0 |
| 20260902120017 | 76 | 128 | 0.0 | 0.0 | 0.00 | 0.00 | 0.00 | 83 | 1015.1 |
| 20260902114516 | 76 | 128 | 0.0 | 0.0 | 0.00 | 0.00 | 0.00 | 83 | 1015.0 |
| 20260902113030 | 76 | 127 | 0.0 | 0.0 | 0.00 | 0.00 | 0.00 | 82 | 1014.9 |
| 20260902111519 | 77 | 128 | 0.0 | 0.0 | 0.00 | 0.00 | 0.00 | 82 | 1015.0 |
| 20260902110013 | 77 | 127 | 0.0 | 0.0 | 0.00 | 0.00 | 0.00 | 82 | 1014.9 |
| 20260902104514 | 77 | 127 | 0.0 | 0.9 | 0.00 | 0.00 | 0.00 | 82 | 1014.9 |
| 20260902103024 | 76 | 160 | 0.0 | 0.0 | 0.00 | 0.00 | 0.00 | 83 | 1014.9 |
| 20260902101516 | 76 | 155 | 0.0 | 0.0 | 0.00 | 0.00 | 0.00 | 83 | 1014.9 |
| 20260902100015 | 76 | 155 | 0.0 | 0.0 | 0.00 | 0.00 | 0.00 | 83 | 1014.8 |
| 20260902094509 | 77 | 155 | 0.0 | 0.0 | 0.00 | 0.00 | 0.00 | 82 | 1014.8 |
| 20260902093006 | 77 | 155 | 0.0 | 0.0 | 0.00 | 0.00 | 0.00 | 82 | 1014.7 |
| 20260902091505 | 77 | 155 | 0.0 | 0.0 | 0.00 | 0.00 | 0.00 | 81 | 1014.6 |
| 20260902090003 | 78 | 155 | 0.0 | 0.0 | 0.00 | 0.00 | 0.00 | 79 | 1014.5 |
| 20260902084615 | 79 | 155 | 0.0 | 0.0 | 0.00 | 0.00 | 0.00 | 78 | 1014.3 |
| 20260902083100 | 79 | 155 | 0.0 | 0.0 | 0.00 | 0.00 | 0.00 | 78 | 1014.4 |
| 20260902081605 | 79 | 152 | 0.0 | 0.0 | 0.00 | 0.00 | 0.00 | 77 | 1014.3 |
| 20260902080056 | 80 | 152 | 0.0 | 0.0 | 0.00 | 0.00 | 0.00 | 76 | 1014.4 |
| 20260902074552 | 80 | 152 | 0.0 | 0.0 | 0.00 | 0.00 | 0.00 | 75 | 1014.4 |
| 20260902073054 | 81 | 158 | 0.0 | 0.0 | 0.00 | 0.00 | 0.00 | 74 | 1014.5 |
| 20260902071547 | 82 | 158 | 0.0 | 0.0 | 0.00 | 0.00 | 0.00 | 73 | 1014.6 |
| 20260902070046 | 82 | 195 | 0.0 | 0.0 | 0.00 | 0.00 | 0.00 | 73 | 1014.8 |
| 20260902064549 | 83 | 264 | 0.0 | 0.9 | 0.00 | 0.00 | 0.00 | 72 | 1014.7 |
| 20260902063049 | 83 | 227 | 0.0 | 3.5 | 0.00 | 0.00 | 0.00 | 71 | 1014.6 |
| 20260902061551 | 83 | 176 | 0.0 | 2.6 | 0.00 | 0.00 | 0.00 | 71 | 1014.5 |
| 20260902060038 | 84 | 121 | 0.9 | 4.3 | 0.00 | 0.00 | 0.00 | 70 | 1014.6 |
| 20260902054546 | 84 | 219 | 0.0 | 3.5 | 0.00 | 0.00 | 0.00 | 69 | 1014.5 |
| 20260902053044 | 84 | 242 | 0.9 | 2.6 | 0.00 | 0.00 | 0.00 | 69 | 1014.6 |
| 20260902051532 | 85 | 116 | 0.9 | 4.3 | 0.00 | 0.00 | 0.00 | 68 | 1014.4 |
| 20260902050030 | 85 | 128 | 1.7 | 5.2 | 0.00 | 0.00 | 0.00 | 68 | 1014.5 |
| 20260902044529 | 86 | 103 | 1.7 | 5.2 | 0.00 | 0.00 | 0.00 | 67 | 1014.5 |
| 20260902043028 | 86 | 96 | 0.9 | 5.2 | 0.00 | 0.00 | 0.00 | 66 | 1014.4 |
| 20260902041527 | 87 | 112 | 0.9 | 3.5 | 0.00 | 0.00 | 0.00 | 65 | 1014.3 |
| 20260902040031 | 87 | 117 | 0.9 | 5.2 | 0.00 | 0.00 | 0.00 | 64 | 1014.3 |
| 20260902034527 | 88 | 85 | 0.9 | 5.2 | 0.00 | 0.00 | 0.00 | 63 | 1014.3 |
| 20260902033026 | 88 | 115 | 1.7 | 7.0 | 0.00 | 0.00 | 0.00 | 62 | 1014.2 |
| 20260902031525 | 88 | 107 | 1.7 | 5.2 | 0.00 | 0.00 | 0.00 | 60 | 1014.0 |
| 20260902030025 | 88 | 188 | 0.0 | 1.7 | 0.00 | 0.00 | 0.00 | 60 | 1013.6 |
| 20260902024525 | 89 | 169 | 0.0 | 0.9 | 0.00 | 0.00 | 0.00 | 59 | 1013.4 |
| 20260902023029 | 90 | 132 | 0.0 | 2.6 | 0.00 | 0.00 | 0.00 | 58 | 1013.3 |
| 20260902021523 | 90 | 110 | 0.0 | 2.6 | 0.00 | 0.00 | 0.00 | 57 | 1013.1 |
| 20260902020025 | 90 | 109 | 0.0 | 2.6 | 0.00 | 0.00 | 0.00 | 56 | 1012.9 |
| 20260902014533 | 91 | 118 | 0.0 | 1.7 | 0.00 | 0.00 | 0.00 | 56 | 1012.6 |
| 20260902013022 | 91 | 103 | 0.0 | 1.7 | 0.00 | 0.00 | 0.00 | 56 | 1012.6 |
| 20260902011538 | 91 | 146 | 0.0 | 0.9 | 0.00 | 0.00 | 0.00 | 56 | 1012.4 |
| 20260902010021 | 91 | 124 | 0.0 | 3.5 | 0.00 | 0.00 | 0.00 | 56 | 1012.3 |
| 20260902004520 | 92 | 123 | 0.9 | 3.5 | 0.00 | 0.00 | 0.00 | 55 | 1012.3 |
| 20260902003020 | 94 | 188 | 1.7 | 4.3 | 0.00 | 0.00 | 0.00 | 51 | 1012.2 |
| 20260902001523 | 95 | 139 | 0.0 | 1.7 | 0.00 | 0.00 | 0.00 | 49 | 1012.1 |
| 20260902000018 | 95 | 142 | 0.0 | 2.6 | 0.00 | 0.00 | 0.00 | 49 | 1012.4 |
| 20260901234516 | 96 | 214 | 0.0 | 3.5 | 0.00 | 0.00 | 0.00 | 49 | 1012.5 |
| 20260901233014 | 96 | 154 | 0.9 | 4.3 | 0.00 | 0.00 | 0.00 | 47 | 1012.6 |
| 20260901231514 | 97 | 135 | 0.9 | 4.3 | 0.00 | 0.00 | 0.00 | 48 | 1012.7 |
| 20260901230013 | 96 | 133 | 0.0 | 1.7 | 0.00 | 0.00 | 0.00 | 48 | 1012.7 |
| 20260901224513 | 96 | 127 | 0.0 | 4.3 | 0.00 | 0.00 | 0.00 | 48 | 1012.8 |
| 20260901223012 | 97 | 153 | 1.7 | 5.2 | 0.00 | 0.00 | 0.00 | 47 | 1012.9 |
| 20260901221511 | 97 | 155 | 1.7 | 7.0 | 0.00 | 0.00 | 0.00 | 47 | 1012.7 |
| 20260901220010 | 97 | 262 | 0.9 | 2.6 | 0.00 | 0.00 | 0.00 | 47 | 1012.9 |
| 20260901214528 | 97 | 123 | 0.9 | 5.2 | 0.00 | 0.00 | 0.00 | 46 | 1013.1 |
| 20260901213009 | 99 | 102 | 2.6 | 6.1 | 0.00 | 0.00 | 0.00 | 45 | 1013.1 |
| 20260901211509 | 100 | 96 | 0.9 | 4.3 | 0.00 | 0.00 | 0.00 | 44 | 1013.1 |
| 20260901210007 | 99 | 169 | 0.0 | 3.5 | 0.00 | 0.00 | 0.00 | 45 | 1013.3 |
| 20260901204504 | 99 | 211 | 0.9 | 4.3 | 0.00 | 0.00 | 0.00 | 44 | 1013.4 |
| 20260901203003 | 100 | 247 | 0.9 | 3.5 | 0.00 | 0.00 | 0.00 | 44 | 1013.5 |
| 20260901201500 | 98 | 271 | 0.9 | 4.3 | 0.00 | 0.00 | 0.00 | 45 | 1013.7 |
| 20260901200111 | 99 | 139 | 0.9 | 2.6 | 0.00 | 0.00 | 0.00 | 44 | 1013.7 |
| 20260901194558 | 98 | 133 | 0.9 | 15.6 | 0.00 | 0.00 | 0.00 | 45 | 1014.0 |